, OR

(GMT )
Tillamook

Weather History for KTMK - October, 2012

Change the Weather History Date:

Monday, October 8, 2012

  Actual Average Record
Temperature  
Mean Temperature 48 °F -  
Max Temperature 60 °F - - ()
Min Temperature 37 °F - - ()
Degree Days  
Heating Degree Days 16    
Moisture  
Dew Point 43 °F    
Average Humidity 78    
Maximum Humidity 100    
Minimum Humidity 59    
Precipitation  
Precipitation 0.00 in - - ()
Sea Level Pressure  
Sea Level Pressure 30.02 in    
Wind  
Wind Speed 2 mph (WNW)    
Max Wind Speed 12 mph    
Max Gust Speed -    
Averages and records for this station are not official NWS values.
T = Trace of Precipitation, MM = Missing Value Source: NWS Daily Summary

Daily Weather History Graph

Daily Weather History Graph

Search for Another Location

Airport or City:

Trip Planner

Search our weather history database for the weather conditions in past years. The results will help you decide how hot, cold, wet, or windy it might be!

Date:

Astronomy

Oct. 08, 2012 Rise Set
Actual Time 8:23 AM MDT 7:41 PM MDT
Civil Twilight 7:53 AM MDT 8:10 PM MDT
Nautical Twilight 7:19 AM MDT 8:45 PM MDT
Astronomical Twilight 6:44 AM MDT 9:19 PM MDT
Moon 12:49 AM MDT (10/8) 3:51 PM MDT (10/8)
Length of Visible Light 12h 17m
Length of Day
11h 18m
Last Quarter, 46% of the Moon is Illuminated
Oct 8
Last Quarter
Oct 15
New
Oct 21
First Quarter
Oct 29
Full
Nov 6
Last Quarter

Hourly Weather History & Observations

Time (MDT) Temp. Windchill Dew Point Humidity Pressure Visibility Wind Dir Wind Speed Gust Speed Precip Events Conditions
12:15 AM 42.8 °F - 37.4 °F 81% 29.96 in - Calm Calm - N/A   Clear
12:35 AM 42.8 °F - 35.6 °F 76% 29.96 in - Calm Calm - N/A   Clear
12:55 AM 41.0 °F - 35.6 °F 81% 29.96 in - Calm Calm - N/A   Clear
1:15 AM 41.0 °F - 33.8 °F 76% 29.96 in - Calm Calm - N/A   Clear
1:35 AM 41.0 °F 39.0 °F 33.8 °F 76% 29.96 in - South 3.5 mph - N/A   Clear
1:55 AM 39.2 °F - 33.8 °F 81% 29.96 in - Calm Calm - N/A   Unknown
2:15 AM 37.4 °F - 33.8 °F 87% 29.97 in - Calm Calm - N/A   Unknown
2:35 AM 37.4 °F - 33.8 °F 87% 29.98 in - Calm Calm - N/A   Unknown
2:55 AM 39.2 °F 35.0 °F 35.6 °F 87% 29.98 in - South 5.8 mph - N/A   Unknown
3:15 AM 41.0 °F 39.0 °F 39.2 °F 93% 29.99 in - SSE 3.5 mph - N/A   Unknown
3:35 AM 41.0 °F 39.0 °F 39.2 °F 93% 29.99 in - SE 3.5 mph - N/A   Mostly Cloudy
3:55 AM 44.6 °F 40.7 °F 44.6 °F 100% 29.99 in - SE 6.9 mph - N/A   Overcast
4:35 AM 42.8 °F - 41.0 °F 93% 29.99 in - Calm Calm - N/A   Overcast
4:55 AM 42.8 °F - 41.0 °F 93% 29.99 in - Calm Calm - N/A   Overcast
5:15 AM 44.6 °F - 42.8 °F 93% 29.99 in - Calm Calm - N/A   Overcast
5:35 AM 44.6 °F 42.2 °F 42.8 °F 93% 30.00 in - NE 4.6 mph - N/A   Overcast
5:55 AM 44.6 °F - 42.8 °F 93% 30.00 in - Calm Calm - N/A   Overcast
6:15 AM 44.6 °F - 42.8 °F 93% 30.00 in - Calm Calm - N/A   Overcast
6:35 AM 44.6 °F - 41.0 °F 87% 30.01 in - Calm Calm - N/A   Overcast
6:55 AM 42.8 °F - 41.0 °F 93% 30.01 in - Calm Calm - N/A   Overcast
7:15 AM 44.6 °F - 41.0 °F 87% 30.01 in - Calm Calm - N/A   Overcast
7:35 AM 44.6 °F - 41.0 °F 87% 30.01 in - Calm Calm - N/A   Overcast
7:55 AM 44.6 °F - 41.0 °F 87% 30.01 in - Calm Calm - N/A   Overcast
8:15 AM 44.6 °F 43.1 °F 41.0 °F 87% 30.02 in - NNE 3.5 mph - N/A   Overcast
8:35 AM 44.6 °F 43.1 °F 41.0 °F 87% 30.02 in - NE 3.5 mph - N/A   Overcast
8:55 AM 46.4 °F - 41.0 °F 81% 30.03 in - Calm Calm - N/A   Overcast
9:15 AM 46.4 °F 45.2 °F 41.0 °F 81% 30.03 in - ENE 3.5 mph - N/A   Overcast
9:35 AM 46.4 °F - 42.8 °F 87% 30.03 in - Calm Calm - N/A   Overcast
9:55 AM 48.2 °F - 42.8 °F 82% 30.03 in - NE 5.8 mph - N/A   Overcast
10:15 AM 48.2 °F - 42.8 °F 82% 30.02 in - NE 6.9 mph - N/A   Overcast
10:35 AM 50.0 °F - 42.8 °F 76% 30.03 in - NE 5.8 mph - N/A   Overcast
10:55 AM 51.8 °F - 44.6 °F 76% 30.02 in - Calm Calm - N/A   Overcast
11:15 AM 51.8 °F - 44.6 °F 76% 30.03 in - Calm Calm - N/A   Overcast
11:35 AM 53.6 °F - 44.6 °F 72% 30.03 in - Calm Calm - N/A   Scattered Clouds
11:55 AM 53.6 °F - 44.6 °F 72% 30.03 in - Calm Calm - N/A   Scattered Clouds
12:15 PM 55.4 °F - 46.4 °F 72% 30.03 in - Calm Calm - N/A   Scattered Clouds
12:35 PM 57.2 °F - 46.4 °F 67% 30.02 in - Calm Calm - N/A   Clear
12:55 PM 57.2 °F - 46.4 °F 67% 30.03 in - Calm Calm - N/A   Clear
1:15 PM 59.0 °F - 46.4 °F 63% 30.02 in - West 4.6 mph - N/A   Clear
1:35 PM 59.0 °F - 46.4 °F 63% 30.03 in - WNW 8.1 mph - N/A   Clear
1:55 PM 59.0 °F - 46.4 °F 63% 30.03 in - WNW 6.9 mph - N/A   Clear
2:15 PM 59.0 °F - 46.4 °F 63% 30.03 in - West 9.2 mph - N/A   Clear
2:35 PM 59.0 °F - 46.4 °F 63% 30.03 in - WNW 8.1 mph - N/A   Clear
2:55 PM 60.8 °F - 46.4 °F 59% 30.03 in - WSW 4.6 mph - N/A   Clear
3:15 PM 60.8 °F - 46.4 °F 59% 30.02 in - WSW 6.9 mph - N/A   Clear
3:35 PM 60.8 °F - 46.4 °F 59% 30.03 in - WNW 9.2 mph - N/A   Clear
3:55 PM 59.0 °F - 46.4 °F 63% 30.03 in - WNW 11.5 mph - N/A   Clear
4:15 PM 60.8 °F - 46.4 °F 59% 30.03 in - West 9.2 mph - N/A   Clear
4:35 PM 59.0 °F - 46.4 °F 63% 30.03 in - West 8.1 mph - N/A   Clear
4:55 PM 60.8 °F - 46.4 °F 59% 30.03 in - WNW 8.1 mph - N/A   Clear
5:15 PM 59.0 °F - 46.4 °F 63% 30.03 in - West 8.1 mph - N/A   Clear
5:35 PM 59.0 °F - 46.4 °F 63% 30.03 in - WNW 9.2 mph - N/A   Clear
5:55 PM 59.0 °F - 46.4 °F 63% 30.03 in - WNW 6.9 mph - N/A   Clear
6:15 PM 59.0 °F - 46.4 °F 63% 30.03 in - WNW 6.9 mph - N/A   Clear
6:35 PM 57.2 °F - 46.4 °F 67% 30.03 in - West 4.6 mph - N/A   Clear
6:55 PM 57.2 °F - 48.2 °F 72% 30.03 in - WNW 4.6 mph - N/A   Clear
7:15 PM 55.4 °F - 46.4 °F 72% 30.04 in - WNW 4.6 mph - N/A   Clear
7:35 PM 53.6 °F - 46.4 °F 77% 30.03 in - Calm Calm - N/A   Clear
7:55 PM 53.6 °F - 46.4 °F 77% 30.03 in - Calm Calm - N/A   Scattered Clouds
8:15 PM 51.8 °F - 46.4 °F 82% 30.03 in - Calm Calm - N/A   Clear
8:35 PM 50.0 °F - 44.6 °F 82% 30.04 in - Calm Calm - N/A   Mostly Cloudy
8:55 PM 50.0 °F - 44.6 °F 82% 30.04 in - Calm Calm - N/A   Scattered Clouds
9:15 PM 48.2 °F - 44.6 °F 87% 30.04 in - Calm Calm - N/A   Unknown
9:55 PM 46.4 °F - 42.8 °F 87% 30.05 in - Calm Calm - N/A   Unknown
10:15 PM 46.4 °F - 42.8 °F 87% 30.06 in - Calm Calm - N/A   Unknown
10:35 PM 46.4 °F - 42.8 °F 87% 30.06 in - Calm Calm - N/A   Unknown
10:55 PM 46.4 °F - 42.8 °F 87% 30.07 in - Calm Calm - N/A   Unknown
11:15 PM 44.6 °F - 42.8 °F 93% 30.07 in - Calm Calm - N/A   Mostly Cloudy
11:35 PM 46.4 °F - 42.8 °F 87% 30.08 in - Calm Calm - N/A   Overcast
11:55 PM 48.2 °F - 44.6 °F 87% 30.08 in - Calm Calm - N/A   Overcast